www.pogodaiklimat.ru

АРХИВ ПОГОДЫ в Уотертауне

Время (UTC), дата Ветер
(напр.,м/с)
 
Видим.   Явления Облачность Т
(С)
Тd
(С)
f
(%)
Тe
(С)
Тes
(С)
Комфортность

P
(гПа)

Po
(гПа)
Тmin
(С)
Tmax
(С)
R
(мм)
SD
(см)
02:53 19.07 В  16 км    ясно  +25.6  +20.6  74  +32  +32  очень
душно 
1004.6  943.8         
03:53 19.07 В  16 км    ясно  +24.4  +20.6  79  +30  +30  очень
душно 
1004.2  943.8         
04:53 19.07 ЮВ  16 км    ясно  +24.4  +20.0  76  +30  +30  очень
душно 
1004.2  943.8  +24.4  +31.1     
05:53 19.07 Ю  16 км    ясно  +22.8  +20.0  84  +29  +29  очень
душно 
1004.5  944.1         
06:53 19.07 ЮВ  16 км    ясно  +22.2  +20.0  87  +28  +28  душно  1004.3  943.8         
07:53 19.07 В  16 км    ясно  +22.8  +20.0  84  +29  +29  очень
душно 
1003.2  942.8         
08:53 19.07 ЮВ  16 км    ясно  +22.2  +20.6  91  +29  +29  очень
душно 
1003.6  943.1         
09:53 19.07 В  16 км    ясно  +22.2  +21.1  93  +29  +29  очень
душно 
1002.8  942.5         
10:53 19.07 ЮВ  16 км    ясно  +23.9  +22.2  90  +31  +31  очень
душно 
1002.4  942.2  +21.1  +24.4     
11:53 19.07 В  16 км    ясно  +25.6  +23.3  87  +34  +35  очень
душно 
1002.0  941.9         
12:53 19.07 В  16 км    ясно  +25.0  +23.3  90  +33  +35  очень
душно 
1001.5  941.2         
13:53 19.07 В  16 км    ясно  +25.6  +23.9  90  +35  +39  очень
душно 
1002.3  941.9         
14:18 19.07 С  5
{8} 
16 км    8/8 270 м  +24.4  +23.3  94  +33  +33  очень
душно 
  942.5         
14:53 19.07 СВ  16 км    10/10 240 м  +25.0  +22.8  88  +33  +33  очень
душно 
1002.7  942.2         
15:19 19.07 В  16 км    10/10 240 м  +25.0  +23.3  90  +33  +33  очень
душно 
  942.2         
15:53 19.07 В  16 км    10/10 240 м  +26.1  +23.9  88  +36  +36  очень
душно 
1002.6  942.2         
16:16 19.07 В  5
{9} 
16 км    8/8 270 м  +26.1  +23.9  88  +36  +37  очень
душно 
  942.2         
16:23 19.07 В  5
{8} 
16 км    8/8 300 м  +26.7  +23.9  85  +37  +38  очень
душно 
  942.2         
16:40 19.07 В  16 км    10/10 330 м  +27.2  +24.4  85  +38  +38  очень
душно 
  942.2         
16:53 19.07 В  16 км    8/8 390 м  +28.3  +25.0  82  +41  +43  опасность
перегрева 
1002.4  942.2  +23.9  +28.3     
17:12 19.07 нст  16 км    2/2 390 м  +28.3  +25.0  82  +41  +51  опасность
перегрева 
  941.9         
17:53 19.07 ЮВ  16 км    ясно  +30.0  +25.6  77  +44  +59  опасность
перегрева 
1002.1  941.9         
18:27 19.07 З  16 км    8/8 690 м  +30.0  +25.6  77  +44  +47  опасность
перегрева 
  942.2         
18:50 19.07 СЗ  16 км    5/5 690 м  +31.0  +26.0  75  +46  +53  опасность
перегрева 
  942.5         
18:53 19.07 СЗ  16 км    2/2 690 м  +31.1  +26.1  75  +47  +59  опасность
перегрева 
1002.8  942.5         
19:53 19.07 СЗ  16 км    ясно  +30.6  +24.4  70  +43  +49  опасность
перегрева 
1003.4  943.1         
20:53 19.07 СЗ  16 км    ясно  +31.1  +24.4  68  +44  +51  опасность
перегрева 
1003.7  943.5         
21:25 19.07 С  16 км    8/8 810 м  +30.0  +25.0  75  +43  +44  опасность
перегрева 
  943.5         
21:53 19.07 С  7
{9} 
16 км    8/8 630 м  +28.9  +24.4  77  +41  +41  опасность
перегрева 
1004.5  943.8         
22:08 19.07 С  16 км    8/8 630 м  +27.8  +23.9  79  +38  +39  очень
душно 
  944.1         
22:21 19.07 С  16 км    8/8 840 м  +28.3  +23.9  77  +39  +39  очень
душно 
  944.1         
22:53 19.07 С  16 км    ясно  +27.2  +23.3  79  +37  +38  очень
душно 
1005.1  944.4  +27.2  +31.7     
23:53 19.07 С  16 км    ясно  +26.1  +22.2  79  +34  +35  очень
душно 
1005.4  944.7         
00:53 20.07 С  16 км    ясно  +23.9  +21.1  84  +30  +30  очень
душно 
1006.4  945.7         
01:53 20.07 С  16 км    ясно  +22.2  +21.1  93  +29  +29  очень
душно 
1007.3  946.3         
02:53 20.07 СВ  16 км    ясно  +22.2  +20.6  91  +29  +29  очень
душно 
1007.9  947.0         
03:53 20.07 СВ  16 км    ясно  +21.7  +20.0  90  +27  +27  душно  1007.8  947.0         
04:53 20.07 СВ  16 км    ясно  +21.7  +19.4  87  +27  +27  душно  1007.6  947.0  +21.1  +27.8     
05:53 20.07 СВ  16 км    ясно  +21.1  +19.4  90  +26  +26  душно  1008.5  947.6         
06:53 20.07 С  16 км    5/5 510 м  +21.1  +19.4  90  +26  +26  душно  1008.6  947.9         
07:53 20.07 СВ  16 км    ясно  +20.0  +19.4  96  +23  +23  комфорт  1008.6  947.6         
08:53 20.07 СВ  8
{13} 
16 км    5/5 1800 м  +20.0  +17.8  87  +22  +22  комфорт  1009.2  948.2         
09:53 20.07 СВ  11
{17} 
16 км    8/0 2700 м
[средняя] 
+20.0  +12.2  61  +21  +21  комфорт  1007.8  947.0         
10:51 20.07 С  4
{15} 
16 км  гроза  10/10 900 м  +19.0  +12.0  64  +20  +20               
10:53 20.07 СЗ  6
{15} 
16 км  гроза  10/10 900 м  +18.9  +12.2  65  +19  +19    1015.7    +18.9  +21.7     
11:39 20.07 СВ  6 км  гроза, слабый дождь  8/0 2700 м
[средняя] 
+15.6  +12.2  80  +14  +14      952.4         
11:51 20.07 СВ  16 км  слабый дождь  8/0 2700 м
[средняя] 
+16.0  +12.0  77  +14  +14      951.7         
11:53 20.07 СВ  16 км  слабый дождь  8/0 2700 м
[средняя] 
+15.0  +11.7  81  +13  +13    1013.1  951.4         

 

Местоположение метеостанции Watertown Municipal Airport: широта 44.9047 долгота -97.1494 высота над уровнем моря 532 м.

В архиве по умолчанию представлена погода в Уотертауне за последние 1-2 суток. Обновление информации о фактической погоде в базе происходит ежечасно! Архивные данные за месяц целиком и за предыдущие месяцы Вы можете получить, выбрав интересующий диапазон дат из раскрывающегося списка и нажав кнопку "Ввод!".

Внимание! Архив погоды МЕТАР в базе сайта в настоящее время начинается c 1 января 2011 г. Нет смысла пытаться выбрать более раннюю дату.

Внимание! Время в таблицах - всемирное. Для получения местного времени необходимо прибавить поправку, которая в Уотертауне равна -6 ч.

Ветер - указаны скорость ветра в м/с и направление, откуда дует ветер: С - северный, СВ - северо-восточный, В - восточный, ЮВ - юго-восточный, Ю - южный, ЮЗ - юго-западный, З - западный, СЗ - северо-западный.
Видимость - горизонтальная дальность видимости в метрах или километрах. При видимости от 1 до 10 км при отсутствии осадков обычно наблюдается дымка, при ухудшении видимости до 1 км и менее - туман. В сухую погоду видимость может ухудшаться дымом, пылью или мглою.
Атмосферные явления - указаны явления, наблюдавшиеся в указанный момент времени.
Облачность - указаны через наклонную черту верхняя и нижняя облачность в баллах и высота нижней границы облаков в метрах. Внимание: облачность, как и прочие метеорологические величины в США измеряются автоматическими метеостанциями. Указанные значения в баллах носят условный характер и показывают процент времени, в течение которого, в среднем, лазерный луч высотомера отражался от облаков обратно.
T - Температура воздуха - температура, измеренная на высоте 2 м над землей.
Td - Температура точки росы - температура, при понижении до которой содержащийся в воздухе водяной пар достигнет насыщения.
f - Относительная влажность воздуха - влажноcть воздуха, измеренная на высоте 2 м над землей.
Te - Эффективная температура - температура, которую ощущает одетый по сезону человек в тени. Характеристика душности погоды. При расчете учитывается влияние влажности воздуха и скорости ветра на теплоощущения человека.
Tes - Эффективная температура на солнце - температура, которую ощущает человек, с поправкой на солнечный нагрев. Характеристика знойности погоды. Зависит от высоты солнца над горизонтом, облачности и скорости ветра. Ночью, в пасмурную погоду, а также при ветре 12 м/с и более поправка равна нулю.
P - Атмосферное давление - приведенное к уровню моря атмосферное давление.
Po - Атмосферное давление - измеренное на уровне метеостанции атмосферное давление.
Tmin - Минимальная температура - минимум температуры воздуха на высоте 2 м над землей.
Tmax - Максимальная температура - максимум температуры воздуха на высоте 2 м над землей.
R - Количество осадков - Количество выпавших осадков за 3 или 6 часов, мм.
SD - Снежный покров - Высота снежного покрова, см.